Location: Newark
(45.5167°N, 11.1667°E)
Time: 04:33:08
(UTC+00:00)

Explorer 7 - Pass Details

Date: 24 December 2019
Orbit: 485 x 679 km, 50.3° (Epoch: 28 January)

Event Time Altitude Azimuth Distance (km) Brightness Sun altitude
Rises 09:16:50 0° 211° (SSW) 2,766 10.9 16.0°
Reaches altitude 10° 09:19:13 10° 200° (SSW) 1,907 10.3 16.2°
Maximum altitude 09:23:04 31° 138° (SE) 1,087 10.0 16.5°
Drops below altitude 10° 09:27:09 10° 77° (ENE) 2,023 9.9 16.8°
Sets 09:29:44 0° 68° (ENE) 2,965 10.6 17.0°
